[[{"header":{"parameterUnit":"m.s-1","parameterCategory":1,"la1":30.2991,"la2":30.254,"lo1":-89.0895,"lo2":-89.0444,"dx":0.0017,"dy":0.0017,"nx":28,"ny":28,"refTime":"2022-11-16T03:00:00:Z","depth":0,"parameterNumber":2,"parameterNumberName":"U-component_of_WINDS"},"data":[0,0,0,0,0,0,0,0,0,0,0,0,0,0,0,0,0,0,0,0,0,0,0,0,0,0,0,0,0,0,0,0,0,0,0,0,0,0,0,0,0,0,0,0,0,0,0,0,0,0,0,0,0,0,0,0,0,0,-0.3605,-0.3606,0,-0.3641,-0.3641,-0.3641,-0.3625,-0.3624,-0.3623,-0.3622,-0.366,-0.3662,-0.3664,0,0,0,0,0,0,0,0,0,0,0,0,0,-0.3525,-0.3527,-0.3605,-0.3606,-0.3606,-0.3641,-0.3641,-0.3641,-0.3625,-0.3624,-0.3623,-0.3622,-0.366,-0.3662,-0.3664,0,0,0,0,0,0,0,0,0,0,0,0,0,-0.356,-0.3527,-0.3605,-0.3602,-0.3602,-0.364,-0.3641,-0.3642,-0.3625,-0.3624,-0.3623,-0.3622,-0.3659,-0.3662,-0.3664,-0.3708,0,0,-0.3673,-0.3674,0,0,0,0,0,0,0,0,-0.3558,-0.3563,-0.3602,-0.3603,-0.3603,-0.3627,-0.3627,-0.3664,-0.3626,-0.3617,-0.3622,-0.3621,-0.365,-0.3654,-0.3663,-0.371,-0.3711,-0.3673,-0.3675,-0.3676,-0.3677,0,0,0,0,0,0,0,-0.3556,-0.3562,-0.3619,-0.3603,-0.3603,-0.3599,-0.3603,-0.3634,-0.3641,-0.3617,-0.3616,-0.3621,-0.365,-0.3661,-0.3664,-0.3712,-0.3673,-0.3675,-0.3677,-0.3678,-0.3795,-0.3797,0,0,0,0,0,0,-0.3553,-0.356,-0.3618,-0.362,-0.3577,-0.3602,-0.3606,-0.3621,-0.364,-0.3642,-0.3622,-0.362,-0.3657,-0.3661,-0.3665,-0.3717,-0.3676,-0.3678,-0.368,-0.3794,-0.3796,-0.3797,0,0,0,0,0,0,-0.3552,-0.3559,-0.3617,-0.359,-0.3597,-0.3605,-0.3621,-0.3622,-0.3632,-0.3644,-0.3645,-0.3631,-0.3656,-0.3662,-0.3697,-0.3719,-0.368,-0.3682,-0.3792,-0.3794,-0.3796,-0.3822,0,0,0,0,0,0,-0.355,-0.3558,-0.3575,-0.359,-0.3598,-0.3648,-0.3623,-0.3624,-0.3637,-0.3635,-0.3653,-0.3654,-0.3655,-0.3693,-0.37,-0.3722,-0.3684,-0.379,-0.3793,-0.3796,-0.382,-0.3825,-0.383,0,0,0,0,0,-0.3547,-0.3581,-0.3576,-0.3583,-0.3619,-0.3649,-0.3654,-0.3654,-0.3639,-0.3656,-0.3662,-0.3654,-0.3715,-0.3697,-0.3705,-0.3727,-0.3789,-0.3792,-0.3795,-0.3817,-0.3824,-0.383,0,0,0,0,0,0,-0.3569,-0.3583,-0.3577,-0.3618,-0.3632,-0.3646,-0.3668,-0.3661,-0.3681,-0.3678,-0.3677,-0.3681,-0.3718,-0.3726,-0.3706,-0.377,-0.375,-0.3755,-0.3764,-0.377,-0.3775,-0.3773,-0.3687,0,0,0,0,0,-0.3579,-0.3601,-0.3613,-0.3647,-0.3655,-0.366,-0.3673,-0.3672,-0.3687,-0.3693,-0.3703,-0.3718,-0.3741,-0.3756,-0.3777,-0.382,-0.3824,-0.384,-0.3845,-0.3849,-0.3853,-0.3876,-0.3883,-0.3808,-0.3808,-0.3808,0,0,-0.3599,-0.3609,-0.3624,-0.3652,-0.3663,-0.3687,-0.3665,-0.3692,-0.3709,-0.3697,-0.3731,-0.3739,-0.3756,-0.3795,-0.3813,-0.3803,-0.3875,-0.3853,-0.3856,-0.3858,-0.388,-0.3887,-0.3893,-0.381,-0.381,-0.3809,0,0,-0.3648,-0.3658,-0.3688,-0.3699,-0.3716,-0.3719,-0.3726,-0.3741,-0.3745,-0.3779,-0.377,-0.3791,-0.383,-0.3842,-0.3854,-0.3906,-0.3899,-0.3913,-0.394,-0.3962,-0.3968,-0.3974,-0.3992,-0.3999,-0.3918,-0.3918,-0.3918,0,-0.3671,-0.3706,-0.3704,-0.3731,-0.3744,-0.3732,-0.3763,-0.3774,-0.3797,-0.3806,-0.3794,-0.3842,-0.3853,-0.3895,-0.3907,-0.3917,-0.3925,-0.3912,-0.3967,-0.3973,-0.3978,-0.3995,-0.4002,-0.3919,-0.3919,-0.3919,-0.3919,0,-0.3734,-0.3759,-0.3781,-0.3802,-0.3817,-0.3845,-0.3848,-0.3863,-0.386,-0.3864,-0.3898,-0.3911,-0.3934,-0.3944,-0.3942,-0.3985,-0.3978,-0.3967,-0.3947,-0.3986,-0.4003,-0.401,-0.3922,-0.3921,-0.3921,-0.392,0,0,-0.38,-0.3818,-0.3827,-0.3836,-0.3853,-0.3872,-0.3899,-0.3921,-0.3934,-0.395,-0.3974,-0.4006,-0.3995,-0.4008,-0.4007,-0.4027,-0.4067,-0.4013,-0.4013,-0.4022,-0.4115,-0.4124,-0.4132,-0.4061,-0.4063,-0.4064,-0.4114,0,-0.385,-0.3897,-0.3896,-0.3941,-0.3963,-0.3952,-0.3976,-0.3989,-0.3993,-0.4013,-0.4018,-0.4041,-0.4025,-0.4033,-0.4052,-0.4058,-0.4085,-0.4054,-0.4083,-0.4084,-0.408,-0.414,-0.415,-0.4196,-0.412,-0.4121,-0.4122,0,-0.3915,-0.3932,-0.3979,-0.3991,-0.4001,-0.4022,-0.4042,-0.4061,-0.4075,-0.4077,-0.4091,-0.4086,-0.4114,-0.4092,-0.413,-0.4109,-0.4121,-0.4125,-0.4127,-0.413,-0.4106,-0.4145,-0.4211,-0.4218,-0.4132,-0.4131,-0.4131,0,-0.3958,-0.3993,-0.4025,-0.4033,-0.4049,-0.4064,-0.4071,-0.4084,-0.4097,-0.4114,-0.4123,-0.4143,-0.4155,-0.4171,-0.4171,-0.4155,-0.421,-0.4188,-0.4212,-0.4212,-0.4225,-0.4224,-0.4294,-0.4232,-0.4232,-0.4232,-0.4232,0,-0.4014,-0.4043,-0.4044,-0.4064,-0.4096,-0.4093,-0.4125,-0.4131,-0.4142,-0.4163,-0.4155,-0.4175,-0.4175,-0.4195,-0.4196,-0.4227,-0.4232,-0.4235,-0.4235,-0.4236,-0.4235,-0.4243,-0.424,-0.4234,-0.4233,-0.4233,-0.4233,0,-0.4068,-0.4069,-0.4104,-0.4115,-0.4119,-0.4142,-0.4152,-0.4171,-0.4174,-0.42,-0.4206,-0.4211,-0.4234,-0.4236,-0.4264,-0.4264,-0.4302,-0.4298,-0.4297,-0.4297,-0.432,-0.4318,-0.4398,-0.4408,-0.434,-0.434,-0.4341,0,-0.4104,-0.4126,-0.4139,-0.4152,-0.416,-0.4181,-0.4194,-0.4192,-0.4206,-0.4223,-0.424,-0.4262,-0.428,-0.4318,-0.4324,-0.4344,-0.4341,-0.4368,-0.4344,-0.4344,-0.4341,-0.434,-0.4342,-0.4372,-0.4373,-0.4374,-0.4374,0,-0.4168,-0.4167,-0.4186,-0.4204,-0.422,-0.4235,-0.4249,-0.426,-0.426,-0.4276,-0.4299,-0.4312,-0.4339,-0.4362,-0.4381,-0.4389,-0.4382,-0.4381,-0.4388,-0.4389,-0.4388,-0.4389,-0.431,-0.438,-0.4379,-0.4379,-0.4379,-0.4378,-0.4214,-0.4232,-0.4244,-0.4265,-0.4275,-0.4288,-0.4306,-0.4311,-0.433,-0.4351,-0.4349,-0.4374,-0.4387,-0.4413,-0.4422,-0.4442,-0.4433,-0.4443,-0.4445,-0.4448,-0.445,-0.4384,-0.4446,-0.4446,-0.4445,-0.4445,-0.4445,0,-0.4277,-0.4284,-0.4303,-0.4322,-0.4338,-0.4329,-0.4343,-0.4358,-0.438,-0.4393,-0.441,-0.4436,-0.4457,-0.4464,-0.4485,-0.4499,-0.4496,-0.4505,-0.4504,-0.4505,-0.4457,-0.4449,-0.4507,-0.4507,-0.4507,-0.4506,-0.4506,-0.4506,-0.4311,-0.4342,-0.4343,-0.4378,-0.4385,-0.441,-0.4419,-0.443,-0.444,-0.447,-0.4487,-0.4491,-0.4501,-0.4522,-0.4541,-0.4542,-0.455,-0.456,-0.456,-0.4515,-0.4509,-0.4503,-0.4496,-0.4562,-0.4562,-0.4607,-0.4607,-0.4608]},{"header":{"parameterUnit":"m.s-1","parameterCategory":1,"la1":30.2991,"la2":30.254,"lo1":-89.0895,"lo2":-89.0444,"dx":0.0017,"dy":0.0017,"nx":28,"ny":28,"refTime":"2022-11-16T03:00:00:Z","depth":0,"parameterNumber":3,"parameterNumberName":"V-component_of_WINDS"},"data":[0,0,0,0,0,0,0,0,0,0,0,0,0,0,0,0,0,0,0,0,0,0,0,0,0,0,0,0,0,0,0,0,0,0,0,0,0,0,0,0,0,0,0,0,0,0,0,0,0,0,0,0,0,0,0,0,0,0,-7.5635,-7.5636,0,-7.5736,-7.5737,-7.5738,-7.5653,-7.5649,-7.5645,-7.5642,-7.574,-7.5746,-7.5752,0,0,0,0,0,0,0,0,0,0,0,0,0,-7.5361,-7.5366,-7.5635,-7.5636,-7.5637,-7.5736,-7.5737,-7.5739,-7.5653,-7.5649,-7.5645,-7.564,-7.5738,-7.5745,-7.5752,0,0,0,0,0,0,0,0,0,0,0,0,0,-7.5473,-7.5368,-7.5634,-7.5607,-7.5605,-7.5736,-7.5737,-7.5739,-7.5654,-7.5649,-7.5643,-7.5638,-7.5736,-7.5745,-7.5753,-7.5915,0,0,-7.5781,-7.5784,0,0,0,0,0,0,0,0,-7.5466,-7.5483,-7.5609,-7.5609,-7.5607,-7.5676,-7.5677,-7.5798,-7.5655,-7.5635,-7.5642,-7.5636,-7.5723,-7.5733,-7.5763,-7.5919,-7.5924,-7.5781,-7.5787,-7.5791,-7.5793,0,0,0,0,0,0,0,-7.5459,-7.5478,-7.5674,-7.5611,-7.561,-7.5587,-7.5597,-7.5699,-7.5708,-7.5637,-7.5631,-7.5644,-7.5721,-7.5755,-7.5765,-7.5925,-7.5781,-7.5789,-7.5794,-7.5798,-7.6218,-7.6224,0,0,0,0,0,0,-7.5455,-7.5472,-7.5671,-7.5677,-7.5522,-7.5596,-7.5607,-7.5659,-7.5706,-7.5708,-7.5649,-7.564,-7.5742,-7.5754,-7.5768,-7.596,-7.579,-7.5799,-7.5804,-7.6212,-7.622,-7.6226,0,0,0,0,0,0,-7.5449,-7.5473,-7.5667,-7.5573,-7.5596,-7.5607,-7.5666,-7.5664,-7.5698,-7.5715,-7.5716,-7.5682,-7.5738,-7.5755,-7.5879,-7.5962,-7.5803,-7.5811,-7.6206,-7.6215,-7.6223,-7.6345,0,0,0,0,0,0,-7.5442,-7.5472,-7.5535,-7.5575,-7.5602,-7.5779,-7.5671,-7.567,-7.5714,-7.5703,-7.5747,-7.5749,-7.5736,-7.5866,-7.5888,-7.5971,-7.5818,-7.6198,-7.621,-7.622,-7.6334,-7.6357,-7.6377,0,0,0,0,0,-7.5432,-7.5564,-7.5538,-7.5563,-7.5681,-7.5784,-7.5799,-7.5783,-7.5721,-7.5783,-7.5795,-7.5747,-7.595,-7.588,-7.5903,-7.5991,-7.6193,-7.6206,-7.6219,-7.6324,-7.6352,-7.6376,0,0,0,0,0,0,-7.553,-7.5569,-7.5541,-7.569,-7.5735,-7.5769,-7.5848,-7.5813,-7.5875,-7.5862,-7.5838,-7.5848,-7.5979,-7.5997,-7.5919,-7.6149,-7.6061,-7.6079,-7.6133,-7.616,-7.6181,-7.6174,-7.5825,0,0,0,0,0,-7.557,-7.5653,-7.5681,-7.5809,-7.5834,-7.5837,-7.5881,-7.5866,-7.591,-7.5928,-7.5948,-7.5991,-7.6064,-7.6113,-7.6181,-7.6336,-7.6343,-7.6407,-7.6429,-7.6447,-7.6463,-7.6545,-7.6573,-7.6269,-7.6269,-7.6269,0,0,-7.5651,-7.5683,-7.5736,-7.583,-7.5863,-7.5947,-7.5853,-7.5946,-7.6008,-7.5941,-7.606,-7.6077,-7.6123,-7.6263,-7.6326,-7.6282,-7.6549,-7.6463,-7.6477,-7.6484,-7.6561,-7.659,-7.6616,-7.6278,-7.6276,-7.6275,0,0,-7.5843,-7.5876,-7.5987,-7.6022,-7.6073,-7.6075,-7.6102,-7.6142,-7.6151,-7.627,-7.6222,-7.6293,-7.642,-7.6455,-7.649,-7.6696,-7.6654,-7.6718,-7.6831,-7.6911,-7.6935,-7.6956,-7.7029,-7.7056,-7.6734,-7.6735,-7.6735,0,-7.5937,-7.6065,-7.6047,-7.6145,-7.6187,-7.6132,-7.6243,-7.6278,-7.6348,-7.6378,-7.6328,-7.6487,-7.6514,-7.6661,-7.6712,-7.6741,-7.677,-7.6713,-7.6934,-7.6955,-7.6974,-7.7043,-7.7071,-7.6742,-7.6741,-7.674,-7.674,0,-7.6178,-7.6267,-7.635,-7.6422,-7.6473,-7.6577,-7.6573,-7.6627,-7.6607,-7.6613,-7.6735,-7.6766,-7.684,-7.6873,-7.6853,-7.7018,-7.6989,-7.6938,-7.6848,-7.7011,-7.7075,-7.7102,-7.6753,-7.675,-7.6748,-7.6746,0,0,-7.6434,-7.6496,-7.6526,-7.6558,-7.6611,-7.6678,-7.6779,-7.6853,-7.6899,-7.695,-7.7032,-7.7141,-7.7094,-7.7133,-7.7116,-7.7188,-7.7348,-7.7127,-7.7127,-7.7166,-7.753,-7.7568,-7.7599,-7.7321,-7.7326,-7.733,-7.7526,0,-7.6627,-7.6805,-7.6792,-7.6959,-7.704,-7.6989,-7.7076,-7.7117,-7.7126,-7.7194,-7.7202,-7.728,-7.7212,-7.7235,-7.7303,-7.7314,-7.742,-7.73,-7.7396,-7.7399,-7.7385,-7.7633,-7.7674,-7.7857,-7.7551,-7.7555,-7.7558,0,-7.6877,-7.6939,-7.7114,-7.7155,-7.7188,-7.7267,-7.7334,-7.7401,-7.7445,-7.7446,-7.7491,-7.7463,-7.7562,-7.7471,-7.7607,-7.7526,-7.7564,-7.7575,-7.7582,-7.7589,-7.7488,-7.7647,-7.7916,-7.7943,-7.7598,-7.7594,-7.7592,0,-7.7046,-7.7172,-7.7293,-7.7322,-7.7373,-7.7429,-7.7453,-7.7493,-7.7538,-7.7595,-7.7624,-7.7692,-7.7729,-7.7781,-7.7771,-7.7706,-7.791,-7.7818,-7.7912,-7.7912,-7.7956,-7.7954,-7.8235,-7.7982,-7.7982,-7.7981,-7.7981,0,-7.7263,-7.7372,-7.737,-7.7444,-7.7564,-7.7548,-7.7667,-7.7683,-7.7719,-7.7794,-7.7754,-7.7825,-7.7807,-7.7877,-7.787,-7.7983,-7.8,-7.8002,-7.7999,-7.8006,-7.8006,-7.803,-7.8017,-7.7989,-7.7987,-7.7986,-7.7984,0,-7.7472,-7.7475,-7.7603,-7.7642,-7.7654,-7.7741,-7.7772,-7.7841,-7.7847,-7.7942,-7.7964,-7.7972,-7.8052,-7.8048,-7.8138,-7.8132,-7.8272,-7.8254,-7.8258,-7.8254,-7.8347,-7.8339,-7.8654,-7.8694,-7.8416,-7.8419,-7.8421,0,-7.761,-7.7693,-7.7741,-7.779,-7.7817,-7.7896,-7.7943,-7.7929,-7.7979,-7.8036,-7.8099,-7.8176,-7.8237,-7.8367,-7.8379,-7.8448,-7.843,-7.8536,-7.844,-7.8445,-7.8431,-7.8427,-7.8434,-7.8555,-7.8558,-7.8561,-7.8563,0,-7.7855,-7.7853,-7.7923,-7.7994,-7.8051,-7.8106,-7.8155,-7.8197,-7.8188,-7.8246,-7.8329,-7.8376,-7.8469,-7.8546,-7.8612,-7.8633,-7.8597,-7.8593,-7.8618,-7.8626,-7.8624,-7.8626,-7.8309,-7.8585,-7.8583,-7.8582,-7.858,-7.8579,-7.8033,-7.8104,-7.8149,-7.8228,-7.8265,-7.8312,-7.838,-7.8394,-7.8464,-7.854,-7.8527,-7.862,-7.8661,-7.8746,-7.8774,-7.8845,-7.8806,-7.8843,-7.8852,-7.8861,-7.8872,-7.8614,-7.8856,-7.8856,-7.8855,-7.8855,-7.8854,0,-7.8275,-7.8302,-7.8375,-7.8447,-7.8509,-7.8472,-7.8525,-7.8578,-7.8661,-7.8704,-7.8765,-7.886,-7.8934,-7.8953,-7.9024,-7.9077,-7.9061,-7.9095,-7.9091,-7.9096,-7.8902,-7.8873,-7.9106,-7.9106,-7.9106,-7.9106,-7.9106,-7.9106,-7.8409,-7.8528,-7.8531,-7.8666,-7.8691,-7.8784,-7.8817,-7.886,-7.8895,-7.9003,-7.9065,-7.9078,-7.9111,-7.9183,-7.9249,-7.9252,-7.928,-7.9321,-7.9317,-7.9135,-7.911,-7.9086,-7.9059,-7.9327,-7.9327,-7.9505,-7.9507,-7.9508]}]]